Temperature
27 27 26 26 26 25 25 25 26 26 26 26 26 26 26 25 24 24 23 23 23 22 21 20 18 18 17 16 16 15 15 15 14 14 14 13 13 13 14 14 14 13 13 14
27 27 27 27 26 25 26 26 27 27 27 26 26 27 27 26 25 24 24 23 23 22 21 20 19 18 17 16 15 15 15 14 14 14 14 13 13 13 13 13 13 13 13 13
26 27 28 28 27 26 27 27 26 26 27 27 26 26 27 26 25 24 23 23 22 22 21 20 18 18 17 16 15 15 15 14 14 14 13 13 13 13 13 13 13 13 13 13
26 27 28 27 27 26 26 27 27 26 26 26 27 25 26 25 24 24 23 23 22 21 20 19 18 17 17 16 15 14 14 14 14 13 13 13 13 13 13 13 13 13 13 13
26 27 27 27 27 27 26 27 26 26 26 26 27 26 26 25 25 24 24 23 22 21 20 19 18 17 16 16 15 14 14 14 13 13 13 13 13 13 13 13 13 13 13 13
26 28 27 27 27 27 27 27 27 26 26 25 26 26 25 25 24 24 24 23 22 21 20 19 18 17 16 15 15 14 14 13 13 13 13 13 13 13 13 13 13 13 13 13
26 27 27 27 27 27 27 26 25 25 24 25 27 26 25 24 25 24 23 23 22 21 20 19 18 17 16 15 15 14 14 13 13 13 13 13 13 13 13 12 12 13 13 13
26 26 27 27 27 27 27 26 25 24 25 26 26 26 24 25 24 23 23 22 21 20 20 19 18 17 16 15 15 14 14 13 13 13 13 13 13 13 12 12 12 12 12 13
26 26 27 27 27 27 26 27 27 25 26 26 27 26 24 24 24 23 23 22 21 21 20 19 18 17 16 15 15 14 14 14 13 13 13 13 13 12 12 12 12 12 12 12
26 25 26 26 26 26 27 26 26 25 24 25 26 26 24 24 24 24 24 23 22 21 20 19 18 17 16 16 15 15 14 14 14 13 13 13 13 12 12 12 12 12 12 12
27 26 26 25 25 26 26 26 26 25 25 24 24 24 25 24 24 24 24 23 22 21 20 19 18 17 16 16 15 15 15 14 14 13 13 13 13 12 12 12 12 12 12 12
27 27 26 26 27 27 26 26 26 24 25 25 24 23 25 24 24 24 24 23 22 20 19 19 18 17 16 16 15 15 15 14 14 13 13 13 13 13 12 12 12 12 12 12
27 26 26 25 25 25 25 25 25 25 24 24 24 23 25 25 25 24 23 23 22 20 19 19 18 17 17 16 16 15 15 14 14 13 13 13 13 12 12 12 12 12 12 12
25 26 26 25 25 26 25 25 25 24 23 24 25 25 25 25 25 24 23 22 22 21 20 19 18 17 17 16 16 15 15 14 14 13 13 13 13 12 12 12 12 12 12 12
26 25 26 27 27 26 26 26 25 24 24 24 25 25 25 25 24 24 23 22 22 21 20 19 18 18 17 17 16 16 15 14 14 14 13 13 13 12 12 12 12 12 12 12
25 25 26 26 27 26 25 26 25 25 25 25 25 25 26 25 25 24 24 23 22 21 20 20 19 18 18 17 17 16 15 15 14 14 13 13 13 12 12 12 12 12 12 12
26 25 25 25 26 26 25 26 25 25 26 25 24 25 26 25 25 24 23 23 22 21 20 20 19 19 18 18 17 16 16 15 15 14 14 13 13 12 12 12 12 12 12 12
26 26 25 25 25 24 26 27 27 26 26 26 26 26 26 25 24 23 23 22 22 21 20 20 19 19 18 18 17 16 16 15 15 14 14 13 13 13 12 12 12 12 12 12
26 25 25 25 25 26 26 26 26 26 25 27 26 26 25 25 24 23 23 22 21 21 20 19 19 18 18 18 17 17 16 16 15 15 14 14 13 13 13 12 12 12 12 12
25 25 24 24 24 24 26 27 27 26 25 26 26 26 25 25 23 22 22 21 21 20 19 19 18 18 18 18 17 17 16 16 16 15 14 14 14 13 13 13 13 12 12 12
23 23 23 23 24 26 26 26 26 24 24 26 26 25 25 24 23 22 21 21 20 19 19 18 18 18 18 17 17 16 16 16 16 15 15 14 14 14 13 13 13 13 13 12
25 24 24 24 23 24 25 25 25 25 25 25 25 24 24 23 22 22 21 20 20 19 18 18 18 17 17 17 17 16 16 16 15 15 15 14 14 14 13 13 13 13 13 13
26 26 26 25 24 25 25 25 24 24 25 24 24 23 23 22 22 21 21 20 19 19 18 18 17 17 17 17 16 16 16 16 15 15 15 15 14 14 14 14 13 13 13 13
27 28 26 26 25 24 24 24 23 23 23 23 23 22 22 22 21 21 20 20 19 18 18 18 17 17 17 17 16 16 16 16 15 15 15 15 15 14 14 14 14 14 14 13
26 27 26 25 25 24 23 23 23 22 22 22 22 21 21 21 21 20 20 19 18 18 18 17 17 17 16 16 16 16 16 15 15 15 15 15 15 15 15 14 14 14 14 14
26 26 25 25 26 25 24 23 22 21 21 21 21 20 20 20 20 19 19 18 18 17 17 17 16 16 16 16 16 16 16 15 15 15 15 15 15 15 15 14 14 14 14 14
Wind_Speed
13 12 11 8 6 5 6 9 9 1 4 3 8 8 4 9 7 6 5 5 4 1 3 6 4 3 3 5 7 6 5 5 5 4 4 5 5 5 5 4 4 6 6 6
12 15 10 6 5 6 10 10 7 3 2 3 9 10 5 7 7 4 3 4 2 2 2 5 4 4 4 5 5 6 6 6 4 3 4 4 5 4 4 4 4 5 5 5
12 7 7 7 7 7 9 5 6 8 7 9 10 9 5 9 6 4 2 2 4 3 4 5 5 4 4 5 6 7 6 6 6 6 4 5 5 5 4 5 4 5 5 4
8 5 4 5 5 4 6 5 5 8 9 7 4 4 3 10 7 7 5 3 1 2 2 3 3 5 5 5 6 7 7 7 7 7 5 6 5 5 6 5 5 6 5 4
6 7 6 5 0 2 3 3 6 9 9 10 8 6 4 8 5 5 5 3 3 3 2 3 3 4 4 5 5 5 6 6 6 6 6 5 4 4 5 5 6 6 5 4
3 3 1 1 3 1 3 6 10 10 8 8 3 2 3 5 6 5 4 3 4 3 2 2 2 3 3 4 4 4 4 5 5 6 6 6 5 6 7 6 6 5 4 4
7 7 5 3 3 4 6 8 6 5 6 3 5 1 4 9 7 5 4 4 4 3 2 2 3 4 3 3 3 4 4 5 5 6 6 7 6 6 6 7 6 6 5 4
9 9 8 5 3 3 5 6 6 6 4 1 4 3 7 9 7 5 3 3 2 2 3 3 3 2 1 2 2 3 4 4 4 5 6 6 7 5 5 6 6 6 5 5
3 4 7 4 0 3 5 4 3 5 9 6 3 7 8 6 6 5 3 3 2 2 3 3 2 1 1 1 2 3 4 4 4 5 5 5 6 6 6 6 6 5 5 6
4 3 7 4 3 4 5 7 4 4 5 5 1 4 6 6 4 3 2 3 3 4 3 3 3 1 1 1 0 1 2 3 4 5 5 5 5 6 6 5 6 6 7 6
5 4 7 7 6 6 6 5 4 4 5 4 4 4 6 6 5 2 2 2 3 3 3 3 3 2 1 1 1 1 1 2 3 5 5 6 5 5 5 5 6 6 6 7
2 5 5 8 6 2 3 5 5 4 4 2 3 3 5 6 3 1 2 2 3 4 3 3 3 1 1 0 2 2 2 3 3 3 5 6 5 5 6 7 7 7 7 7
3 5 5 5 5 4 5 6 5 5 5 5 4 3 5 4 4 3 2 1 2 5 5 4 4 2 1 0 1 1 1 2 1 2 4 5 6 6 6 6 7 7 7 7
4 8 10 6 4 3 5 6 6 6 5 5 3 0 3 2 3 4 4 2 2 4 5 4 4 3 3 2 2 1 1 1 1 1 2 4 5 5 5 6 7 7 7 7
4 9 11 7 3 3 4 5 7 9 9 7 6 5 5 5 5 3 2 3 2 2 4 4 5 4 3 3 2 1 1 0 1 1 2 3 5 5 5 5 6 7 7 7
6 8 10 9 6 6 8 9 9 9 9 9 8 6 2 4 3 1 1 4 3 3 3 3 4 4 3 3 2 2 1 1 0 1 2 2 3 4 4 5 5 6 6 6
7 9 10 9 7 7 9 12 13 10 9 7 7 3 3 2 1 1 2 2 2 2 3 3 3 4 3 2 2 2 2 1 1 1 1 2 3 3 4 5 5 6 5 5
8 8 6 8 6 8 1 4 5 8 9 7 5 2 1 2 1 2 1 1 1 3 3 3 2 3 3 3 3 3 3 2 0 1 1 1 1 2 3 3 4 4 5 5
7 6 5 7 9 7 6 6 5 5 6 6 4 2 1 1 2 3 4 3 2 3 4 3 2 2 2 2 2 1 2 3 2 1 1 1 1 1 2 4 4 3 4 4
6 7 6 6 6 6 4 10 7 3 5 6 4 3 2 2 1 4 6 5 4 5 3 3 2 1 1 2 2 1 2 1 1 2 1 1 1 1 2 3 4 4 4 4
7 7 8 9 7 3 8 9 7 4 2 7 5 4 2 1 5 6 5 5 4 4 4 3 1 1 0 1 1 2 2 1 2 3 1 1 1 2 3 3 3 4 4 4
9 7 8 7 7 4 10 8 5 3 6 6 5 4 3 5 6 5 5 5 4 4 3 3 2 2 1 1 2 3 1 1 1 1 2 3 3 4 3 3 4 4 4 5
8 7 3 4 2 6 5 4 4 3 2 4 4 4 4 3 3 4 4 4 4 3 3 2 2 2 2 3 3 3 2 2 2 3 4 5 5 5 4 4 4 4 3 3
7 7 5 5 5 8 7 5 4 2 1 3 3 3 2 2 3 4 4 4 4 3 3 2 2 1 2 1 1 1 2 2 3 5 5 6 6 5 5 4 3 3 3 3
6 4 7 9 5 5 7 7 7 5 4 4 4 3 2 2 3 3 4 4 4 3 3 3 1 0 1 1 1 0 1 2 4 5 5 5 4 4 4 4 4 4 4 4
11 8 8 7 6 7 9 11 10 8 7 6 5 5 4 3 3 3 4 4 4 3 3 3 2 1 1 2 2 2 2 3 4 5 4 3 2 2 3 4 4 8 9 9
Wind_Direction
200 216 221 213 218 257 270 269 275 237 145 271 289 289 202 173 181 212 232 232 230 135 94 97 75 46 15 21 17 358 353 1 5 5 340 337 328 324 316 316 334 334 324 322
201 221 220 205 214 230 250 267 298 356 93 302 292 288 246 169 173 192 268 294 301 82 59 91 77 49 31 29 14 350 0 349 3 358 338 326 324 319 318 335 334 334 328 323
216 224 202 219 233 260 278 305 333 326 316 275 272 270 220 134 143 155 193 289 321 27 24 30 36 28 29 33 16 357 355 354 9 358 353 341 335 328 339 338 333 325 317 313
208 227 230 232 242 269 297 17 335 309 296 290 274 298 170 140 156 167 175 197 189 75 54 48 33 30 17 34 28 358 358 5 9 356 356 345 335 339 330 326 320 319 313 316
192 190 221 245 3 318 345 348 294 281 280 283 260 260 138 138 143 132 129 142 119 101 78 50 48 49 18 37 27 358 360 4 4 343 328 320 338 331 321 322 321 324 322 325
155 160 209 105 100 44 299 267 255 250 257 262 237 273 106 105 80 81 104 122 121 112 107 103 78 75 45 40 19 357 356 1 344 331 330 340 344 336 329 330 329 327 322 322
178 181 153 153 210 195 246 273 272 239 220 216 113 187 82 89 76 62 57 69 88 106 103 81 65 55 42 20 6 349 3 356 345 339 337 341 343 340 339 337 330 329 326 324
202 185 168 182 248 292 266 282 299 310 310 1 162 163 102 101 97 92 101 98 103 135 111 86 80 73 47 357 11 8 357 339 339 337 340 340 349 349 338 332 332 331 325 316
291 138 128 134 175 296 291 280 331 316 292 283 185 124 120 128 137 143 152 155 186 146 126 126 111 78 40 22 27 11 345 343 347 342 337 352 349 342 341 338 336 331 325 324
299 161 167 160 212 218 284 322 306 274 307 302 205 136 127 133 119 124 164 170 160 144 145 132 126 117 49 28 7 313 309 332 352 347 345 353 344 341 338 334 342 336 332 329
273 248 174 175 212 222 203 226 244 278 285 302 337 62 75 85 68 23 11 103 119 128 136 130 132 144 163 265 301 309 339 23 17 356 348 340 337 333 336 344 343 339 337 333
268 293 236 191 170 148 275 280 280 274 299 272 280 99 97 104 108 103 9 71 121 130 137 147 150 175 184 5 344 340 7 32 25 360 341 329 328 342 352 351 350 348 345 341
344 277 265 173 160 172 221 232 260 291 293 278 281 126 158 152 156 139 123 104 134 145 160 163 158 180 181 269 290 305 18 41 15 359 331 327 344 355 354 352 354 349 346 348
332 273 277 295 359 140 197 203 218 244 257 273 275 75 170 140 94 93 110 129 154 155 163 167 164 189 188 213 267 310 28 17 342 340 321 335 344 352 358 0 355 350 352 356
249 269 277 282 286 289 265 236 216 230 254 278 317 339 344 39 63 68 115 153 168 175 176 174 173 194 191 196 207 172 161 308 342 333 348 4 354 4 359 358 356 356 357 359
238 272 276 269 253 250 254 245 233 229 243 263 282 291 25 66 84 99 187 148 169 192 193 181 183 182 198 206 183 150 163 146 321 341 30 23 349 358 351 352 359 357 352 352
224 249 273 272 240 237 251 232 220 223 226 235 256 285 39 6 35 31 27 97 164 175 162 172 193 174 188 187 119 101 90 96 273 348 49 35 359 355 355 354 354 348 345 356
248 248 261 272 244 240 176 80 180 212 225 224 240 274 331 325 74 109 88 50 120 140 139 156 179 159 181 172 144 149 164 189 215 27 0 33 342 337 342 338 335 336 341 348
281 282 272 267 270 259 174 157 166 200 225 202 217 192 120 333 238 177 127 98 76 97 113 129 143 153 178 144 128 191 193 173 173 167 282 306 305 331 332 326 323 325 331 330
246 271 263 266 266 282 119 130 140 207 233 165 163 143 134 240 254 100 94 93 89 92 97 106 129 197 163 134 126 276 281 228 172 157 194 325 357 329 311 308 312 314 309 306
197 225 237 258 265 269 112 121 138 216 140 127 134 132 155 89 77 96 97 99 99 109 116 122 160 174 55 96 159 258 292 2 72 83 40 333 288 267 259 269 285 294 300 307
198 210 214 223 241 231 139 153 178 95 103 119 120 111 94 80 91 100 101 108 116 124 134 166 189 184 182 224 242 262 278 44 94 141 239 262 264 269 279 258 264 277 290 293
221 235 237 215 172 101 144 132 97 67 109 99 95 89 99 113 119 114 113 118 123 130 140 163 205 211 208 217 226 257 246 208 210 215 232 243 249 241 241 248 256 262 267 276
236 216 243 261 176 170 176 158 147 157 125 93 100 114 135 149 132 122 121 119 123 129 130 137 158 210 256 249 165 251 290 259 247 241 239 239 243 242 235 230 236 252 267 281
274 224 225 244 227 168 184 187 176 170 172 163 151 138 135 134 120 118 121 116 113 109 107 115 126 174 330 359 69 16 294 290 283 273 258 248 244 247 248 238 232 235 232 226
268 255 231 234 230 215 195 183 176 175 179 174 161 145 131 119 109 101 94 91 92 91 93 102 103 82 4 353 22 28 350 312 295 294 298 294 276 255 249 254 257 239 233 233
Height
1502 1504 1506 1507 1506 1511 1513 1515 1513 1507 1507 1510 1510 1508 1508 1511 1515 1519 1521 1522 1523 1525 1527 1527 1528 1528 1528 1526 1525 1523 1521 1518 1516 1513 1510 1508 1506 1504 1502 1501 1500 1498 1497 1497
1501 1502 1498 1499 1502 1506 1508 1508 1507 1505 1505 1508 1509 1506 1503 1506 1512 1516 1519 1520 1522 1523 1525 1526 1526 1527 1526 1525 1523 1522 1520 1517 1515 1512 1510 1508 1505 1503 1501 1499 1498 1496 1495 1494
1500 1498 1495 1498 1500 1505 1503 1505 1508 1510 1505 1504 1507 1507 1502 1504 1510 1515 1518 1520 1522 1523 1525 1526 1526 1526 1525 1524 1522 1521 1519 1517 1514 1511 1509 1507 1504 1502 1500 1498 1496 1494 1492 1491
1498 1497 1496 1498 1500 1504 1508 1504 1506 1509 1512 1510 1506 1520 1506 1504 1509 1512 1516 1519 1520 1522 1524 1525 1525 1525 1524 1523 1521 1520 1518 1516 1513 1511 1508 1506 1503 1501 1498 1496 1494 1492 1490 1489
1497 1496 1498 1500 1501 1503 1505 1504 1506 1507 1510 1512 1505 1512 1508 1503 1509 1510 1513 1516 1519 1521 1523 1524 1524 1523 1523 1522 1520 1518 1517 1514 1512 1510 1508 1505 1503 1500 1497 1495 1493 1491 1489 1487
1496 1494 1497 1499 1500 1502 1502 1504 1504 1504 1508 1519 1504 1511 1513 1507 1508 1510 1513 1515 1518 1520 1521 1522 1523 1522 1522 1520 1519 1517 1515 1513 1511 1509 1507 1505 1502 1500 1497 1494 1492 1489 1487 1485
1499 1495 1497 1498 1501 1502 1503 1509 1518 1520 1521 1515 1500 1509 1512 1507 1507 1510 1513 1515 1517 1519 1520 1521 1521 1521 1520 1519 1518 1516 1515 1513 1511 1509 1506 1504 1502 1499 1496 1493 1491 1488 1486 1484
1501 1503 1497 1498 1500 1503 1501 1506 1522 1530 1521 1511 1503 1509 1509 1504 1508 1511 1513 1515 1517 1518 1519 1520 1520 1520 1519 1518 1517 1516 1514 1512 1510 1508 1506 1504 1501 1498 1496 1493 1490 1487 1485 1483
1499 1503 1495 1497 1498 1501 1504 1503 1502 1514 1511 1513 1503 1502 1507 1504 1507 1510 1512 1514 1515 1516 1517 1518 1519 1519 1518 1517 1516 1515 1513 1511 1509 1507 1505 1503 1500 1498 1495 1492 1489 1487 1484 1482
1495 1504 1500 1500 1501 1502 1502 1503 1506 1514 1522 1522 1508 1504 1509 1508 1506 1507 1509 1511 1513 1514 1516 1517 1517 1517 1517 1516 1515 1514 1512 1511 1509 1507 1505 1503 1500 1497 1495 1492 1489 1486 1484 1481
1493 1500 1502 1502 1503 1501 1504 1506 1507 1510 1511 1525 1525 1520 1501 1504 1505 1507 1508 1509 1511 1513 1514 1515 1516 1516 1516 1515 1515 1513 1512 1510 1508 1506 1504 1502 1500 1497 1495 1492 1489 1486 1483 1481
1492 1495 1499 1497 1493 1495 1499 1501 1504 1517 1514 1510 1520 1520 1501 1502 1504 1506 1507 1508 1509 1511 1513 1514 1514 1515 1515 1514 1514 1513 1511 1510 1508 1506 1504 1502 1500 1497 1494 1492 1489 1486 1483 1481
1493 1499 1505 1507 1506 1502 1502 1501 1503 1507 1511 1514 1519 1518 1501 1500 1501 1503 1505 1507 1508 1510 1511 1512 1513 1513 1514 1513 1513 1512 1511 1509 1507 1505 1503 1501 1499 1497 1494 1491 1489 1486 1483 1481
1498 1499 1502 1509 1504 1498 1501 1501 1503 1508 1515 1512 1508 1505 1500 1497 1499 1501 1503 1506 1507 1508 1509 1510 1511 1512 1512 1512 1512 1511 1510 1508 1507 1505 1503 1501 1499 1497 1494 1492 1489 1486 1483 1481
1498 1500 1493 1490 1489 1492 1495 1498 1500 1505 1506 1509 1504 1501 1497 1496 1498 1501 1502 1504 1505 1507 1508 1509 1509 1510 1511 1510 1510 1510 1509 1508 1506 1505 1503 1501 1499 1497 1494 1492 1489 1487 1484 1481
1496 1497 1493 1492 1489 1491 1495 1494 1496 1499 1500 1501 1501 1500 1493 1495 1498 1499 1500 1502 1503 1505 1506 1507 1508 1508 1509 1509 1509 1508 1508 1507 1506 1505 1503 1501 1499 1497 1494 1492 1490 1487 1485 1482
1492 1495 1497 1496 1488 1491 1498 1488 1490 1493 1492 1496 1500 1496 1492 1495 1496 1498 1499 1500 1502 1503 1504 1505 1506 1507 1508 1508 1508 1508 1507 1506 1505 1504 1502 1500 1499 1496 1494 1492 1490 1488 1485 1483
1489 1491 1493 1495 1494 1507 1489 1475 1478 1485 1486 1487 1489 1490 1492 1494 1495 1497 1499 1499 1500 1501 1502 1504 1505 1505 1506 1507 1507 1506 1506 1505 1505 1503 1502 1500 1498 1496 1494 1492 1490 1488 1486 1484
1487 1490 1494 1495 1497 1489 1481 1477 1479 1485 1487 1484 1486 1488 1491 1492 1494 1495 1497 1498 1499 1500 1501 1502 1503 1504 1505 1505 1506 1506 1505 1504 1503 1502 1501 1500 1498 1496 1494 1492 1491 1489 1487 1484
1489 1490 1495 1495 1502 1499 1479 1474 1477 1484 1489 1482 1485 1487 1490 1491 1494 1497 1497 1498 1498 1499 1500 1501 1502 1503 1504 1504 1504 1504 1504 1504 1503 1501 1500 1499 1497 1496 1494 1492 1490 1489 1487 1485
1493 1494 1497 1499 1498 1484 1476 1476 1480 1495 1489 1481 1484 1487 1489 1491 1493 1496 1496 1497 1498 1499 1499 1500 1501 1502 1503 1503 1503 1503 1503 1502 1501 1500 1499 1497 1496 1495 1493 1492 1490 1488 1487 1485
1484 1488 1490 1491 1497 1490 1476 1477 1481 1483 1481 1482 1484 1487 1489 1491 1493 1494 1495 1496 1497 1498 1498 1499 1500 1501 1501 1501 1502 1501 1501 1501 1500 1498 1497 1496 1495 1494 1493 1491 1489 1488 1486 1485
1472 1473 1473 1476 1481 1475 1475 1476 1478 1480 1481 1483 1484 1486 1488 1490 1492 1493 1494 1495 1496 1496 1497 1498 1498 1499 1499 1500 1500 1500 1499 1498 1498 1497 1495 1494 1493 1492 1491 1490 1488 1487 1486 1484
1463 1464 1468 1470 1470 1472 1474 1476 1477 1479 1481 1482 1484 1486 1487 1489 1490 1492 1493 1494 1494 1495 1495 1496 1496 1497 1498 1498 1497 1497 1497 1496 1495 1495 1494 1493 1491 1490 1489 1488 1487 1486 1484 1483
1461 1461 1464 1467 1467 1470 1471 1473 1475 1477 1479 1481 1483 1484 1486 1487 1489 1490 1491 1492 1493 1493 1494 1494 1495 1495 1495 1495 1495 1494 1494 1493 1493 1492 1491 1490 1489 1488 1487 1486 1485 1484 1482 1481
1460 1460 1464 1465 1463 1464 1466 1468 1471 1474 1477 1479 1480 1482 1484 1485 1487 1488 1489 1490 1491 1492 1492 1492 1493 1493 1493 1493 1493 1492 1491 1490 1490 1489 1489 1488 1487 1486 1484 1483 1482 1481 1480 1479